Year,Month,Day,Hour,Minute,Value (Times are PST for temperature in C)
2017,06,22,00,00,9.90
2017,06,22,00,01,9.80
2017,06,22,00,02,9.80
2017,06,22,00,03,9.80
2017,06,22,00,04,9.80
2017,06,22,00,05,9.80
2017,06,22,00,06,9.80
2017,06,22,00,07,9.80
2017,06,22,00,08,9.70
2017,06,22,00,09,9.70
2017,06,22,00,10,9.70
2017,06,22,00,11,9.70
2017,06,22,00,12,9.70
2017,06,22,00,13,9.60
2017,06,22,00,14,9.60
2017,06,22,00,15,9.60
2017,06,22,00,16,9.60
2017,06,22,00,17,9.60
2017,06,22,00,18,9.60
2017,06,22,00,19,9.60
2017,06,22,00,20,9.60
2017,06,22,00,21,9.60
2017,06,22,00,22,9.60
2017,06,22,00,23,9.60
2017,06,22,00,24,9.60
2017,06,22,00,25,9.60
2017,06,22,00,26,9.50
2017,06,22,00,27,9.50
2017,06,22,00,28,9.50
2017,06,22,00,29,9.50
2017,06,22,00,30,9.40
2017,06,22,00,31,9.40
2017,06,22,00,32,9.40
2017,06,22,00,33,9.30
2017,06,22,00,34,9.30
2017,06,22,00,35,9.30
2017,06,22,00,36,9.30
2017,06,22,00,37,9.30
2017,06,22,00,38,9.20
2017,06,22,00,39,9.20
2017,06,22,00,40,9.20
2017,06,22,00,41,9.20
2017,06,22,00,42,9.20
2017,06,22,00,43,9.20
2017,06,22,00,44,9.10
2017,06,22,00,45,9.10
2017,06,22,00,46,9.10
2017,06,22,00,47,9.10
2017,06,22,00,48,9.10
2017,06,22,00,49,9.10
2017,06,22,00,50,9.00
2017,06,22,00,51,9.00
2017,06,22,00,52,9.00
2017,06,22,00,53,8.90
2017,06,22,00,54,8.90
2017,06,22,00,55,8.90
2017,06,22,00,56,8.90
2017,06,22,00,57,8.80
2017,06,22,00,58,8.80
2017,06,22,00,59,8.80
2017,06,22,01,00,8.80
2017,06,22,01,01,8.80
2017,06,22,01,02,8.80
2017,06,22,01,03,8.70
2017,06,22,01,04,8.70
2017,06,22,01,05,8.70
2017,06,22,01,06,8.70
2017,06,22,01,07,8.70
2017,06,22,01,08,8.70
2017,06,22,01,09,8.70
2017,06,22,01,10,8.70
2017,06,22,01,11,8.70
2017,06,22,01,12,8.70
2017,06,22,01,13,8.60
2017,06,22,01,14,8.60
2017,06,22,01,15,8.60
2017,06,22,01,16,8.60
2017,06,22,01,17,8.60
2017,06,22,01,18,8.60
2017,06,22,01,19,8.60
2017,06,22,01,20,8.60
2017,06,22,01,21,8.60
2017,06,22,01,22,8.50
2017,06,22,01,23,8.50
2017,06,22,01,24,8.50
2017,06,22,01,25,8.50
2017,06,22,01,26,8.50
2017,06,22,01,27,8.50
2017,06,22,01,28,8.50
2017,06,22,01,29,8.50
2017,06,22,01,30,8.50
2017,06,22,01,31,8.50
2017,06,22,01,32,8.50
2017,06,22,01,33,8.50
2017,06,22,01,34,8.50
2017,06,22,01,35,8.40
2017,06,22,01,36,8.40
2017,06,22,01,37,8.40
2017,06,22,01,38,8.40
2017,06,22,01,39,8.40
2017,06,22,01,40,8.40
2017,06,22,01,41,8.40
2017,06,22,01,42,8.40
2017,06,22,01,43,8.40
2017,06,22,01,44,8.40
2017,06,22,01,45,8.40
2017,06,22,01,46,8.40
2017,06,22,01,47,8.40
2017,06,22,01,48,8.40
2017,06,22,01,49,8.40
2017,06,22,01,50,8.30
2017,06,22,01,51,8.30
2017,06,22,01,52,8.30
2017,06,22,01,53,8.30
2017,06,22,01,54,8.30
2017,06,22,01,55,8.30
2017,06,22,01,56,8.30
2017,06,22,01,57,8.30
2017,06,22,01,58,8.30
2017,06,22,01,59,8.30
2017,06,22,02,00,8.30
2017,06,22,02,01,8.30
2017,06,22,02,02,8.30
2017,06,22,02,03,8.20
2017,06,22,02,04,8.20
2017,06,22,02,05,8.20
2017,06,22,02,06,8.20
2017,06,22,02,07,8.20
2017,06,22,02,08,8.20
2017,06,22,02,09,8.10
2017,06,22,02,10,8.10
2017,06,22,02,11,8.10
2017,06,22,02,12,8.10
2017,06,22,02,13,8.10
2017,06,22,02,14,8.10
2017,06,22,02,15,8.10
2017,06,22,02,16,8.00
2017,06,22,02,17,8.00
2017,06,22,02,18,8.00
2017,06,22,02,19,8.00
2017,06,22,02,20,8.00
2017,06,22,02,21,8.00
2017,06,22,02,22,8.00
2017,06,22,02,23,8.00
2017,06,22,02,24,8.00
2017,06,22,02,25,8.00
2017,06,22,02,26,8.00
2017,06,22,02,27,8.00
2017,06,22,02,28,8.00
2017,06,22,02,29,7.90
2017,06,22,02,30,7.90
2017,06,22,02,31,7.90
2017,06,22,02,32,7.90
2017,06,22,02,33,7.90
2017,06,22,02,34,7.90
2017,06,22,02,35,7.90
2017,06,22,02,36,7.90
2017,06,22,02,37,7.90
2017,06,22,02,38,7.90
2017,06,22,02,39,7.80
2017,06,22,02,40,7.80
2017,06,22,02,41,7.80
2017,06,22,02,42,7.80
2017,06,22,02,43,7.80
2017,06,22,02,44,7.70
2017,06,22,02,45,7.70
2017,06,22,02,46,7.70
2017,06,22,02,47,7.70
2017,06,22,02,48,7.70
2017,06,22,02,49,7.70
2017,06,22,02,50,7.60
2017,06,22,02,51,7.60
2017,06,22,02,52,7.60
2017,06,22,02,53,7.60
2017,06,22,02,54,7.60
2017,06,22,02,55,7.60
2017,06,22,02,56,7.50
2017,06,22,02,57,7.50
2017,06,22,02,58,7.50
2017,06,22,02,59,7.50
2017,06,22,03,00,7.40
2017,06,22,03,01,7.40
2017,06,22,03,02,7.40
2017,06,22,03,03,7.40
2017,06,22,03,04,7.40
2017,06,22,03,05,7.40
2017,06,22,03,06,7.40
2017,06,22,03,07,7.40
2017,06,22,03,08,7.30
2017,06,22,03,09,7.30
2017,06,22,03,10,7.30
2017,06,22,03,11,7.30
2017,06,22,03,12,7.30
2017,06,22,03,13,7.30
2017,06,22,03,14,7.30
2017,06,22,03,15,7.30
2017,06,22,03,16,7.30
2017,06,22,03,17,7.30
2017,06,22,03,18,7.30
2017,06,22,03,19,7.20
2017,06,22,03,20,7.20
2017,06,22,03,21,7.20
2017,06,22,03,22,7.20
2017,06,22,03,23,7.20
2017,06,22,03,24,7.20
2017,06,22,03,25,7.20
2017,06,22,03,26,7.20
2017,06,22,03,27,7.20
2017,06,22,03,28,7.20
2017,06,22,03,29,7.20
2017,06,22,03,30,7.20
2017,06,22,03,31,7.20
2017,06,22,03,32,7.20
2017,06,22,03,33,7.20
2017,06,22,03,34,7.20
2017,06,22,03,35,7.20
2017,06,22,03,36,7.20
2017,06,22,03,37,7.20
2017,06,22,03,38,7.20
2017,06,22,03,39,7.20
2017,06,22,03,40,7.20
2017,06,22,03,41,7.20
2017,06,22,03,42,7.20
2017,06,22,03,43,7.20
2017,06,22,03,44,7.20
2017,06,22,03,45,7.20
2017,06,22,03,46,7.20
2017,06,22,03,47,7.20
2017,06,22,03,48,7.20
2017,06,22,03,49,7.20
2017,06,22,03,50,7.20
2017,06,22,03,51,7.10
2017,06,22,03,52,7.10
2017,06,22,03,53,7.10
2017,06,22,03,54,7.10
2017,06,22,03,55,7.10
2017,06,22,03,56,7.10
2017,06,22,03,57,7.00
2017,06,22,03,58,7.00
2017,06,22,03,59,7.00
2017,06,22,04,00,6.90
2017,06,22,04,01,6.90
2017,06,22,04,02,6.90
2017,06,22,04,03,6.90
2017,06,22,04,04,6.90
2017,06,22,04,05,6.90
2017,06,22,04,06,6.80
2017,06,22,04,07,6.80
2017,06,22,04,08,6.80
2017,06,22,04,09,6.80
2017,06,22,04,10,6.80
2017,06,22,04,11,6.80
2017,06,22,04,12,6.80
2017,06,22,04,13,6.80
2017,06,22,04,14,6.80
2017,06,22,04,15,6.80
2017,06,22,04,16,6.80
2017,06,22,04,17,6.80
2017,06,22,04,18,6.80
2017,06,22,04,19,6.80
2017,06,22,04,20,6.80
2017,06,22,04,21,6.80
2017,06,22,04,22,6.80
2017,06,22,04,23,6.80
2017,06,22,04,24,6.80
2017,06,22,04,25,6.80
2017,06,22,04,26,6.70
2017,06,22,04,27,6.70
2017,06,22,04,28,6.70
2017,06,22,04,29,6.70
2017,06,22,04,30,6.70
2017,06,22,04,31,6.70
2017,06,22,04,32,6.70
2017,06,22,04,33,6.70
2017,06,22,04,34,6.70
2017,06,22,04,35,6.70
2017,06,22,04,36,6.70
2017,06,22,04,37,6.70
2017,06,22,04,38,6.70
2017,06,22,04,39,6.70
2017,06,22,04,40,6.70
2017,06,22,04,41,6.70
2017,06,22,04,42,6.70
2017,06,22,04,43,6.70
2017,06,22,04,44,6.70
2017,06,22,04,45,6.70
2017,06,22,04,46,6.70
2017,06,22,04,47,6.60
2017,06,22,04,48,6.60
2017,06,22,04,49,6.60
2017,06,22,04,50,6.60
2017,06,22,04,51,6.60
2017,06,22,04,52,6.60
2017,06,22,04,53,6.60
2017,06,22,04,54,6.60
2017,06,22,04,55,6.60
2017,06,22,04,56,6.50
2017,06,22,04,57,6.50
2017,06,22,04,58,6.50
2017,06,22,04,59,6.50
2017,06,22,05,00,6.50
2017,06,22,05,01,6.50
2017,06,22,05,02,6.50
2017,06,22,05,03,6.50
2017,06,22,05,04,6.40
2017,06,22,05,05,6.40
2017,06,22,05,06,6.40
2017,06,22,05,07,6.40
2017,06,22,05,08,6.40
2017,06,22,05,09,6.40
2017,06,22,05,10,6.40
2017,06,22,05,11,6.40
2017,06,22,05,12,6.40
2017,06,22,05,13,6.40
2017,06,22,05,14,6.40
2017,06,22,05,15,6.40
2017,06,22,05,16,6.40
2017,06,22,05,17,6.40
2017,06,22,05,18,6.40
2017,06,22,05,19,6.30
2017,06,22,05,20,6.30
2017,06,22,05,21,6.30
2017,06,22,05,22,6.30
2017,06,22,05,23,6.40
2017,06,22,05,24,6.40
2017,06,22,05,25,6.40
2017,06,22,05,26,6.30
2017,06,22,05,27,6.30
2017,06,22,05,28,6.30
2017,06,22,05,29,6.30
2017,06,22,05,30,6.30
2017,06,22,05,31,6.40
2017,06,22,05,32,6.40
2017,06,22,05,33,6.40
2017,06,22,05,34,6.40
2017,06,22,05,35,6.40
2017,06,22,05,36,6.40
2017,06,22,05,37,6.30
2017,06,22,05,38,6.30
2017,06,22,05,39,6.30
2017,06,22,05,40,6.30
2017,06,22,05,41,6.30
2017,06,22,05,42,6.30
2017,06,22,05,43,6.30
2017,06,22,05,44,6.30
2017,06,22,05,45,6.30
2017,06,22,05,46,6.30
2017,06,22,05,47,6.30
2017,06,22,05,48,6.30
2017,06,22,05,49,6.30
2017,06,22,05,50,6.30
2017,06,22,05,51,6.30
2017,06,22,05,52,6.30
2017,06,22,05,53,6.30
2017,06,22,05,54,6.20
2017,06,22,05,55,6.20
2017,06,22,05,56,6.20
2017,06,22,05,57,6.20
2017,06,22,05,58,6.20
2017,06,22,05,59,6.20
2017,06,22,06,00,6.20
2017,06,22,06,01,6.20
2017,06,22,06,02,6.20
2017,06,22,06,03,6.20
2017,06,22,06,04,6.20
2017,06,22,06,05,6.20
2017,06,22,06,06,6.20
2017,06,22,06,07,6.20
2017,06,22,06,08,6.20
2017,06,22,06,09,6.20
2017,06,22,06,10,6.20
2017,06,22,06,11,6.20
2017,06,22,06,12,6.20
2017,06,22,06,13,6.20
2017,06,22,06,14,6.20
2017,06,22,06,15,6.20
2017,06,22,06,16,6.20
2017,06,22,06,17,6.30
2017,06,22,06,18,6.30
2017,06,22,06,19,6.30
2017,06,22,06,20,6.30
2017,06,22,06,21,6.30
2017,06,22,06,22,6.20
2017,06,22,06,23,6.20
2017,06,22,06,24,6.30
2017,06,22,06,25,6.30
2017,06,22,06,26,6.30
2017,06,22,06,27,6.30
2017,06,22,06,28,6.30
2017,06,22,06,29,6.30
2017,06,22,06,30,6.30
2017,06,22,06,31,6.30
2017,06,22,06,32,6.30
2017,06,22,06,33,6.30
2017,06,22,06,34,6.30
2017,06,22,06,35,6.30
2017,06,22,06,36,6.30
2017,06,22,06,37,6.30
2017,06,22,06,38,6.30
2017,06,22,06,39,6.30
2017,06,22,06,40,6.30
2017,06,22,06,41,6.30
2017,06,22,06,42,6.40
2017,06,22,06,43,6.30
2017,06,22,06,44,6.40
2017,06,22,06,45,6.40
2017,06,22,06,46,6.40
2017,06,22,06,47,6.40
2017,06,22,06,48,6.40
2017,06,22,06,49,6.40
2017,06,22,06,50,6.40
2017,06,22,06,51,6.40
2017,06,22,06,52,6.40
2017,06,22,06,53,6.50
2017,06,22,06,54,6.50
2017,06,22,06,55,6.60
2017,06,22,06,56,6.60
2017,06,22,06,57,6.60
2017,06,22,06,58,6.60
2017,06,22,06,59,6.70
2017,06,22,07,00,6.70
2017,06,22,07,01,6.70
2017,06,22,07,02,6.80
2017,06,22,07,03,6.80
2017,06,22,07,04,6.80
2017,06,22,07,05,6.80
2017,06,22,07,06,6.90
2017,06,22,07,07,6.90
2017,06,22,07,08,6.90
2017,06,22,07,09,7.00
2017,06,22,07,10,7.10
2017,06,22,07,11,7.10
2017,06,22,07,12,7.20
2017,06,22,07,13,7.20
2017,06,22,07,14,7.30
2017,06,22,07,15,7.40
2017,06,22,07,16,7.40
2017,06,22,07,17,7.50
2017,06,22,07,18,7.60
2017,06,22,07,19,7.70
2017,06,22,07,20,7.80
2017,06,22,07,21,7.80
2017,06,22,07,22,7.90
2017,06,22,07,23,8.00
2017,06,22,07,24,8.10
2017,06,22,07,25,8.20
2017,06,22,07,26,8.20
2017,06,22,07,27,8.30
2017,06,22,07,28,8.30
2017,06,22,07,29,8.30
2017,06,22,07,30,8.40
2017,06,22,07,31,8.40
2017,06,22,07,32,8.40
2017,06,22,07,33,8.50
2017,06,22,07,34,8.50
2017,06,22,07,35,8.60
2017,06,22,07,36,8.60
2017,06,22,07,37,8.60
2017,06,22,07,38,8.70
2017,06,22,07,39,8.70
2017,06,22,07,40,8.80
2017,06,22,07,41,8.90
2017,06,22,07,42,8.90
2017,06,22,07,43,9.00
2017,06,22,07,44,9.00
2017,06,22,07,45,9.10
2017,06,22,07,46,9.10
2017,06,22,07,47,9.20
2017,06,22,07,48,9.20
2017,06,22,07,49,9.30
2017,06,22,07,50,9.30
2017,06,22,07,51,9.40
2017,06,22,07,52,9.40
2017,06,22,07,53,9.40
2017,06,22,07,54,9.50
2017,06,22,07,55,9.50
2017,06,22,07,56,9.60
2017,06,22,07,57,9.60
2017,06,22,07,58,9.70
2017,06,22,07,59,9.80
2017,06,22,08,00,9.80
2017,06,22,08,01,9.90
2017,06,22,08,02,10.00
2017,06,22,08,03,10.10
2017,06,22,08,04,10.10
2017,06,22,08,05,10.20
2017,06,22,08,06,10.30
2017,06,22,08,07,10.40
2017,06,22,08,08,10.50
2017,06,22,08,09,10.70
2017,06,22,08,10,10.70
2017,06,22,08,11,10.90
2017,06,22,08,12,11.00
2017,06,22,08,13,11.10
2017,06,22,08,14,11.20
2017,06,22,08,15,11.30
2017,06,22,08,16,11.30
2017,06,22,08,17,11.40
2017,06,22,08,18,11.40
2017,06,22,08,19,11.50
2017,06,22,08,20,11.60
2017,06,22,08,21,11.60
2017,06,22,08,22,11.70
2017,06,22,08,23,11.80
2017,06,22,08,24,11.80
2017,06,22,08,25,11.90
2017,06,22,08,26,12.00
2017,06,22,08,27,12.10
2017,06,22,08,28,12.10
2017,06,22,08,29,12.20
2017,06,22,08,30,12.40
2017,06,22,08,31,12.50
2017,06,22,08,32,12.60
2017,06,22,08,33,12.80
2017,06,22,08,34,12.90
2017,06,22,08,35,12.90
2017,06,22,08,36,13.00
2017,06,22,08,37,13.10
2017,06,22,08,38,13.10
2017,06,22,08,39,13.20
2017,06,22,08,40,13.20
2017,06,22,08,41,13.20
2017,06,22,08,42,13.20
2017,06,22,08,43,13.20
2017,06,22,08,44,13.20
2017,06,22,08,45,13.20
2017,06,22,08,46,13.30
2017,06,22,08,47,13.30
2017,06,22,08,48,13.30
2017,06,22,08,49,13.30
2017,06,22,08,50,13.30
2017,06,22,08,51,13.40
2017,06,22,08,52,13.50
2017,06,22,08,53,13.60
2017,06,22,08,54,13.70
2017,06,22,08,55,13.80
2017,06,22,08,56,13.90
2017,06,22,08,57,13.90
2017,06,22,08,58,14.00
2017,06,22,08,59,14.10
2017,06,22,09,00,14.20
2017,06,22,09,01,14.30
2017,06,22,09,02,14.40
2017,06,22,09,03,14.40
2017,06,22,09,04,14.50
2017,06,22,09,05,14.50
2017,06,22,09,06,14.50
2017,06,22,09,07,14.60
2017,06,22,09,08,14.70
2017,06,22,09,09,14.80
2017,06,22,09,10,14.90
2017,06,22,09,11,15.00
2017,06,22,09,12,15.00
2017,06,22,09,13,15.00
2017,06,22,09,14,15.00
2017,06,22,09,15,15.10
2017,06,22,09,16,15.10
2017,06,22,09,17,15.10
2017,06,22,09,18,15.10
2017,06,22,09,19,15.00
2017,06,22,09,20,15.00
2017,06,22,09,21,15.10
2017,06,22,09,22,15.20
2017,06,22,09,23,15.20
2017,06,22,09,24,15.20
2017,06,22,09,25,15.20
2017,06,22,09,26,15.30
2017,06,22,09,27,15.40
2017,06,22,09,28,15.50
2017,06,22,09,29,15.60
2017,06,22,09,30,15.60
2017,06,22,09,31,15.70
2017,06,22,09,32,15.80
2017,06,22,09,33,15.90
2017,06,22,09,34,16.00
2017,06,22,09,35,16.10
2017,06,22,09,36,16.20
2017,06,22,09,37,16.30
2017,06,22,09,38,16.40
2017,06,22,09,39,16.50
2017,06,22,09,40,16.60
2017,06,22,09,41,16.70
2017,06,22,09,42,16.70
2017,06,22,09,43,16.70
2017,06,22,09,44,16.80
2017,06,22,09,45,16.80
2017,06,22,09,46,16.90
2017,06,22,09,47,16.90
2017,06,22,09,48,17.00
2017,06,22,09,49,17.10
2017,06,22,09,50,17.20
2017,06,22,09,51,17.30
2017,06,22,09,52,17.30
2017,06,22,09,53,17.30
2017,06,22,09,54,17.30
2017,06,22,09,55,17.20
2017,06,22,09,56,17.20
2017,06,22,09,57,17.20
2017,06,22,09,58,17.20
2017,06,22,09,59,17.30
2017,06,22,10,00,17.40
2017,06,22,10,01,17.50
2017,06,22,10,02,17.50
2017,06,22,10,03,17.60
2017,06,22,10,04,17.70
2017,06,22,10,05,17.80
2017,06,22,10,06,17.80
2017,06,22,10,07,17.80
2017,06,22,10,08,17.70
2017,06,22,10,09,17.60
2017,06,22,10,10,17.50
2017,06,22,10,11,17.30
2017,06,22,10,12,17.20
2017,06,22,10,13,17.20
2017,06,22,10,14,17.10
2017,06,22,10,15,17.10
2017,06,22,10,16,17.10
2017,06,22,10,17,17.10
2017,06,22,10,18,17.20
2017,06,22,10,19,17.20
2017,06,22,10,20,17.30
2017,06,22,10,21,17.30
2017,06,22,10,22,17.30
2017,06,22,10,23,17.40
2017,06,22,10,24,17.40
2017,06,22,10,25,17.40
2017,06,22,10,26,17.40
2017,06,22,10,27,17.40
2017,06,22,10,28,17.40
2017,06,22,10,29,17.40
2017,06,22,10,30,17.30
2017,06,22,10,31,17.30
2017,06,22,10,32,17.30
2017,06,22,10,33,17.30
2017,06,22,10,34,17.40
2017,06,22,10,35,17.40
2017,06,22,10,36,17.40
2017,06,22,10,37,17.50
2017,06,22,10,38,17.50
2017,06,22,10,39,17.50
2017,06,22,10,40,17.50
2017,06,22,10,41,17.50
2017,06,22,10,42,17.60
2017,06,22,10,43,17.60
2017,06,22,10,44,17.60
2017,06,22,10,45,17.60
2017,06,22,10,46,17.70
2017,06,22,10,47,17.70
2017,06,22,10,48,17.80
2017,06,22,10,49,17.80
2017,06,22,10,50,17.90
2017,06,22,10,51,17.90
2017,06,22,10,52,18.00
2017,06,22,10,53,18.10
2017,06,22,10,54,18.30
2017,06,22,10,55,18.40
2017,06,22,10,56,18.50
2017,06,22,10,57,18.60
2017,06,22,10,58,18.60
2017,06,22,10,59,18.70
2017,06,22,11,00,18.70
2017,06,22,11,01,18.70
2017,06,22,11,02,18.70
2017,06,22,11,03,18.70
2017,06,22,11,04,18.60
2017,06,22,11,05,18.50
2017,06,22,11,06,18.50
2017,06,22,11,07,18.40
2017,06,22,11,08,18.40
2017,06,22,11,09,18.50
2017,06,22,11,10,18.50
2017,06,22,11,11,18.60
2017,06,22,11,12,18.70
2017,06,22,11,13,18.80
2017,06,22,11,14,18.80
2017,06,22,11,15,18.80
2017,06,22,11,16,18.80
2017,06,22,11,17,18.80
2017,06,22,11,18,18.80
2017,06,22,11,19,18.80
2017,06,22,11,20,18.80
2017,06,22,11,21,18.90
2017,06,22,11,22,18.90
2017,06,22,11,23,18.90
2017,06,22,11,24,18.90
2017,06,22,11,25,19.00
2017,06,22,11,26,19.00
2017,06,22,11,27,19.00
2017,06,22,11,28,19.00
2017,06,22,11,29,18.90
2017,06,22,11,30,18.90
2017,06,22,11,31,18.80
2017,06,22,11,32,18.80
2017,06,22,11,33,18.80
2017,06,22,11,34,18.90
2017,06,22,11,35,18.90
2017,06,22,11,36,18.90
2017,06,22,11,37,18.90
2017,06,22,11,38,19.00
2017,06,22,11,39,19.10
2017,06,22,11,40,19.20
2017,06,22,11,41,19.40
2017,06,22,11,42,19.40
2017,06,22,11,43,19.40
2017,06,22,11,44,19.40
2017,06,22,11,45,19.40
2017,06,22,11,46,19.30
2017,06,22,11,47,19.30
2017,06,22,11,48,19.30
2017,06,22,11,49,19.30
2017,06,22,11,50,19.30
2017,06,22,11,51,19.30
2017,06,22,11,52,19.30
2017,06,22,11,53,19.30
2017,06,22,11,54,19.30
2017,06,22,11,55,19.40
2017,06,22,11,56,19.40
2017,06,22,11,57,19.50
2017,06,22,11,58,19.50
2017,06,22,11,59,19.60
2017,06,22,12,00,19.60
2017,06,22,12,01,19.60
2017,06,22,12,02,19.60
2017,06,22,12,03,19.50
2017,06,22,12,04,19.60
2017,06,22,12,05,19.60
2017,06,22,12,06,19.60
2017,06,22,12,07,19.70
2017,06,22,12,08,19.80
2017,06,22,12,09,19.80
2017,06,22,12,10,19.80
2017,06,22,12,11,19.90
2017,06,22,12,12,19.90
2017,06,22,12,13,20.00
2017,06,22,12,14,20.00
2017,06,22,12,15,20.00
2017,06,22,12,16,20.00
2017,06,22,12,17,20.00
2017,06,22,12,18,19.90
2017,06,22,12,19,19.90
2017,06,22,12,20,19.90
2017,06,22,12,21,19.90
2017,06,22,12,22,19.90
2017,06,22,12,23,19.90
2017,06,22,12,24,19.90
2017,06,22,12,25,20.00
2017,06,22,12,26,20.00
2017,06,22,12,27,20.10
2017,06,22,12,28,20.10
2017,06,22,12,29,20.10
2017,06,22,12,30,20.30
2017,06,22,12,31,20.40
2017,06,22,12,32,20.50
2017,06,22,12,33,20.60
2017,06,22,12,34,20.70
2017,06,22,12,35,20.70
2017,06,22,12,36,20.80
2017,06,22,12,37,20.80
2017,06,22,12,38,20.90
2017,06,22,12,39,20.90
2017,06,22,12,40,20.90
2017,06,22,12,41,20.80
2017,06,22,12,42,20.80
2017,06,22,12,43,20.80
2017,06,22,12,44,20.90
2017,06,22,12,45,21.00
2017,06,22,12,46,21.10
2017,06,22,12,47,21.20
2017,06,22,12,48,21.20
2017,06,22,12,49,21.30
2017,06,22,12,50,21.40
2017,06,22,12,51,21.40
2017,06,22,12,52,21.30
2017,06,22,12,53,21.20
2017,06,22,12,54,21.20
2017,06,22,12,55,21.20
2017,06,22,12,56,21.20
2017,06,22,12,57,21.20
2017,06,22,12,58,21.20
2017,06,22,12,59,21.20
2017,06,22,13,00,21.30
2017,06,22,13,01,21.30
2017,06,22,13,02,21.20
2017,06,22,13,03,21.20
2017,06,22,13,04,21.10
2017,06,22,13,05,21.10
2017,06,22,13,06,21.10
2017,06,22,13,07,21.20
2017,06,22,13,08,21.10
2017,06,22,13,09,21.00
2017,06,22,13,10,21.00
2017,06,22,13,11,20.90
2017,06,22,13,12,20.90
2017,06,22,13,13,20.90
2017,06,22,13,14,20.90
2017,06,22,13,15,20.90
2017,06,22,13,16,20.90
2017,06,22,13,17,20.90
2017,06,22,13,18,20.80
2017,06,22,13,19,20.80
2017,06,22,13,20,20.90
2017,06,22,13,21,20.90
2017,06,22,13,22,20.90
2017,06,22,13,23,21.10
2017,06,22,13,24,21.20
2017,06,22,13,25,21.20
2017,06,22,13,26,21.40
2017,06,22,13,27,21.50
2017,06,22,13,28,21.60
2017,06,22,13,29,21.70
2017,06,22,13,30,21.80
2017,06,22,13,31,21.90
2017,06,22,13,32,22.00
2017,06,22,13,33,22.00
2017,06,22,13,34,22.00
2017,06,22,13,35,21.80
2017,06,22,13,36,21.60
2017,06,22,13,37,21.50
2017,06,22,13,38,21.40
2017,06,22,13,39,21.30
2017,06,22,13,40,21.30
2017,06,22,13,41,21.30
2017,06,22,13,42,21.30
2017,06,22,13,43,21.30
2017,06,22,13,44,21.20
2017,06,22,13,45,21.10
2017,06,22,13,46,21.10
2017,06,22,13,47,21.10
2017,06,22,13,48,21.20
2017,06,22,13,49,21.30
2017,06,22,13,50,21.30
2017,06,22,13,51,21.40
2017,06,22,13,52,21.40
2017,06,22,13,53,21.50
2017,06,22,13,54,21.60
2017,06,22,13,55,21.60
2017,06,22,13,56,21.60
2017,06,22,13,57,21.70
2017,06,22,13,58,21.60
2017,06,22,13,59,21.70
2017,06,22,14,00,21.70
2017,06,22,14,01,21.80
2017,06,22,14,02,21.80
2017,06,22,14,03,21.90
2017,06,22,14,04,21.90
2017,06,22,14,05,21.90
2017,06,22,14,06,21.80
2017,06,22,14,07,21.80
2017,06,22,14,08,21.90
2017,06,22,14,09,22.00
2017,06,22,14,10,22.10
2017,06,22,14,11,22.30
2017,06,22,14,12,22.40
2017,06,22,14,13,22.50
2017,06,22,14,14,22.60
2017,06,22,14,15,22.70
2017,06,22,14,16,22.80
2017,06,22,14,17,22.70
2017,06,22,14,18,22.70
2017,06,22,14,19,22.60
2017,06,22,14,20,22.60
2017,06,22,14,21,22.70
2017,06,22,14,22,22.80
2017,06,22,14,23,22.90
2017,06,22,14,24,23.00
2017,06,22,14,25,23.10
2017,06,22,14,26,23.20
2017,06,22,14,27,23.40
2017,06,22,14,28,23.50
2017,06,22,14,29,23.60
2017,06,22,14,30,23.60
2017,06,22,14,31,23.60
2017,06,22,14,32,23.60
2017,06,22,14,33,23.50
2017,06,22,14,34,23.30
2017,06,22,14,35,23.00
2017,06,22,14,36,22.80
2017,06,22,14,37,22.60
2017,06,22,14,38,22.50
2017,06,22,14,39,22.40
2017,06,22,14,40,22.30
2017,06,22,14,41,22.30
2017,06,22,14,42,22.30
2017,06,22,14,43,22.30
2017,06,22,14,44,22.20
2017,06,22,14,45,22.20
2017,06,22,14,46,22.20
2017,06,22,14,47,22.20
2017,06,22,14,48,22.20
2017,06,22,14,49,22.20
2017,06,22,14,50,22.10
2017,06,22,14,51,21.90
2017,06,22,14,52,21.80
2017,06,22,14,53,21.70
2017,06,22,14,54,21.60
2017,06,22,14,55,21.60
2017,06,22,14,56,21.60
2017,06,22,14,57,21.50
2017,06,22,14,58,21.50
2017,06,22,14,59,21.60
2017,06,22,15,00,21.60
2017,06,22,15,01,21.70
2017,06,22,15,02,21.80
2017,06,22,15,03,21.80
2017,06,22,15,04,21.80
2017,06,22,15,05,21.80
2017,06,22,15,06,21.90
2017,06,22,15,07,21.90
2017,06,22,15,08,22.00
2017,06,22,15,09,22.00
2017,06,22,15,10,22.10
2017,06,22,15,11,22.00
2017,06,22,15,12,22.00
2017,06,22,15,13,22.00
2017,06,22,15,14,21.90
2017,06,22,15,15,21.90
2017,06,22,15,16,21.80
2017,06,22,15,17,21.80
2017,06,22,15,18,21.80
2017,06,22,15,19,21.80
2017,06,22,15,20,21.90
2017,06,22,15,21,21.90
2017,06,22,15,22,22.00
2017,06,22,15,23,22.10
2017,06,22,15,24,22.10
2017,06,22,15,25,22.10
2017,06,22,15,26,22.20
2017,06,22,15,27,22.20
2017,06,22,15,28,22.30
2017,06,22,15,29,22.40
2017,06,22,15,30,22.40
2017,06,22,15,31,22.30
2017,06,22,15,32,22.30
2017,06,22,15,33,22.20
2017,06,22,15,34,22.10
2017,06,22,15,35,22.10
2017,06,22,15,36,22.10
2017,06,22,15,37,22.10
2017,06,22,15,38,22.10
2017,06,22,15,39,22.20
2017,06,22,15,40,22.20
2017,06,22,15,41,22.20
2017,06,22,15,42,22.20
2017,06,22,15,43,22.20
2017,06,22,15,44,22.20
2017,06,22,15,45,22.20
2017,06,22,15,46,22.20
2017,06,22,15,47,22.20
2017,06,22,15,48,22.30
2017,06,22,15,49,22.30
2017,06,22,15,50,22.30
2017,06,22,15,51,22.40
2017,06,22,15,52,22.40
2017,06,22,15,53,22.50
2017,06,22,15,54,22.50
2017,06,22,15,55,22.40
2017,06,22,15,56,22.50
2017,06,22,15,57,22.50
2017,06,22,15,58,22.50
2017,06,22,15,59,22.60
2017,06,22,16,00,22.60
2017,06,22,16,01,22.60
2017,06,22,16,02,22.60
2017,06,22,16,03,22.60
2017,06,22,16,04,22.60
2017,06,22,16,05,22.60
2017,06,22,16,06,22.60
2017,06,22,16,07,22.60
2017,06,22,16,08,22.60
2017,06,22,16,09,22.60
2017,06,22,16,10,22.60
2017,06,22,16,11,22.70
2017,06,22,16,12,22.70
2017,06,22,16,13,22.70
2017,06,22,16,14,22.70
2017,06,22,16,15,22.70
2017,06,22,16,16,22.70
2017,06,22,16,17,22.70
2017,06,22,16,18,22.60
2017,06,22,16,19,22.60
2017,06,22,16,20,22.60
2017,06,22,16,21,22.60
2017,06,22,16,22,22.60
2017,06,22,16,23,22.60
2017,06,22,16,24,22.50
2017,06,22,16,25,22.50
2017,06,22,16,26,22.50
2017,06,22,16,27,22.50
2017,06,22,16,28,22.50
2017,06,22,16,29,22.50
2017,06,22,16,30,22.60
2017,06,22,16,31,22.60
2017,06,22,16,32,22.60
2017,06,22,16,33,22.60
2017,06,22,16,34,22.60
2017,06,22,16,35,22.60
2017,06,22,16,36,22.60
2017,06,22,16,37,22.70
2017,06,22,16,38,22.70
2017,06,22,16,39,22.80
2017,06,22,16,40,22.80
2017,06,22,16,41,22.70
2017,06,22,16,42,22.70
2017,06,22,16,43,22.70
2017,06,22,16,44,22.70
2017,06,22,16,45,22.70
2017,06,22,16,46,22.70
2017,06,22,16,47,22.70
2017,06,22,16,48,22.70
2017,06,22,16,49,22.70
2017,06,22,16,50,22.80
2017,06,22,16,51,22.80
2017,06,22,16,52,22.80
2017,06,22,16,53,22.80
2017,06,22,16,54,22.80
2017,06,22,16,55,22.70
2017,06,22,16,56,22.80
2017,06,22,16,57,22.80
2017,06,22,16,58,22.80
2017,06,22,16,59,22.80
2017,06,22,17,00,22.80
2017,06,22,17,01,22.90
2017,06,22,17,02,22.90
2017,06,22,17,03,22.90
2017,06,22,17,04,22.90
2017,06,22,17,05,22.90
2017,06,22,17,06,22.90
2017,06,22,17,07,22.90
2017,06,22,17,08,22.80
2017,06,22,17,09,22.80
2017,06,22,17,10,22.80
2017,06,22,17,11,22.80
2017,06,22,17,12,22.80
2017,06,22,17,13,22.70
2017,06,22,17,14,22.70
2017,06,22,17,15,22.70
2017,06,22,17,16,22.70
2017,06,22,17,17,22.70
2017,06,22,17,18,22.80
2017,06,22,17,19,22.80
2017,06,22,17,20,22.80
2017,06,22,17,21,22.90
2017,06,22,17,22,22.90
2017,06,22,17,23,22.90
2017,06,22,17,24,22.90
2017,06,22,17,25,22.90
2017,06,22,17,26,22.90
2017,06,22,17,27,22.90
2017,06,22,17,28,22.90
2017,06,22,17,29,22.90
2017,06,22,17,30,22.90
2017,06,22,17,31,22.90
2017,06,22,17,32,22.90
2017,06,22,17,33,23.00
2017,06,22,17,34,23.00
2017,06,22,17,35,23.00
2017,06,22,17,36,22.90
2017,06,22,17,37,22.90
2017,06,22,17,38,22.90
2017,06,22,17,39,22.90
2017,06,22,17,40,22.90